Hauptseite
METAR-TAF:

METAR-TAF

Flughäfen :

Militärflugplatz Meiringen

Meiringen, Schweiz

Breite: 46-44-25N, Länge: 8-06-36E, Höhe: 577 m

Beobachtung

Neuester Wetterbericht von vor 19 Minuten, um 12:20 UTC
Wind 12 kt aus Ost/Nordost, variierte zwischen Nord/Nordost und Ost
Temperatur 6°C
Luftfeuchtigkeit 81%
Luftdruck 1018 hPa
Sichtweite 10 km oder mehr
Leicht bewölkt in der Höhe von 1000 ft
Durchbrochene Bewölkung in der Höhe von 13000 ft

METAR: LSMM 261220Z 06012KT 020V080 9999 FEW010 BKN130 06/03 Q1018 RMK BLU

Zeit: 14:39 (12:39 UTC)


TAF: fehlend

Wetterbeobachtungen und Prognosen von mehr als 4000 Flughäfen (METAR und TAF Bericht).

Die verfügbaren Stationen werden durch gelbe und rote Markierungen auf der Karte dargestellt.

Führen Sie die Maus auf sie, um den Namen der Station zu sehen.

Darauf klicken, um die Beobachtung von Wetterbeobachtungen und Prognosen zu sehen.

Um die Karte zu ändern : klicken Sie auf den grünen Tasten mit einem schwarzen Kreuz Zum Vergrößern, auf den grünen Button mit einem Gedankenstrich zu verkleinern, oder auf die grünen Pfeile für benachbarte Karten.


METAR-TAF: